Theta_e
325 325 326 328 328 329 329 329 331 332 332 332 332 336 337 339 338 334 334 326 321 327 328 326 327 325 325 324 323 323 321 320 321 320 319 319 317 317 316 315 315 318 319 319 320 322 324 326 327 327 328 328 328 328 329 328 328 328 328 327 327 328 327 328 328 328 328 329 328 328 328 328 328 328 329 329 329 327 326 326 326 325 325 325 325 325
326 325 324 325 326 328 328 327 330 332 331 331 333 336 337 338 338 333 329 324 320 326 332 328 326 326 324 324 323 323 323 322 321 320 320 320 319 318 318 317 315 314 315 316 317 318 322 324 325 327 327 328 328 328 329 329 329 329 329 328 328 328 327 327 327 327 328 328 328 328 328 328 328 327 327 327 326 325 325 325 326 326 325 325 325 325
327 325 324 324 325 326 327 326 328 331 331 332 333 335 337 335 334 331 325 320 319 326 332 327 325 325 323 323 323 322 323 323 321 320 321 321 321 320 319 318 317 315 315 315 315 315 319 322 324 326 326 327 328 328 328 328 329 329 328 329 328 328 328 327 327 327 327 327 327 327 326 326 326 326 326 325 325 325 325 326 326 325 325 325 324 324
328 326 325 324 325 326 327 326 329 331 330 331 332 334 337 334 334 336 328 318 318 323 325 323 323 324 323 323 323 321 321 322 322 321 321 320 321 321 320 319 318 317 317 316 314 313 315 318 322 324 325 326 327 327 328 328 328 328 328 329 328 328 328 327 327 327 326 326 325 325 324 325 325 325 325 325 325 325 325 325 325 325 325 324 323 322
327 326 324 324 324 325 327 327 328 331 330 330 330 332 337 335 333 336 329 320 320 321 319 321 326 328 328 330 327 323 320 319 319 320 320 320 319 319 320 320 319 318 317 316 315 313 311 314 318 321 323 325 326 326 327 327 328 328 328 328 328 328 328 327 327 327 326 325 325 324 324 325 325 325 325 324 325 325 325 325 325 326 325 324 323 322
326 324 323 323 324 324 326 327 328 330 331 331 330 331 335 336 331 328 326 327 331 331 323 322 332 337 337 337 333 328 325 322 320 319 319 318 318 318 318 318 318 317 317 316 316 314 311 311 314 318 321 323 325 326 326 327 327 328 328 328 328 328 327 327 326 327 326 325 325 325 324 324 324 324 324 324 324 324 325 326 327 327 326 325 324 324
325 323 322 323 323 325 325 326 328 328 331 332 331 332 334 333 330 326 328 334 338 337 325 320 331 338 335 334 334 333 333 329 323 320 319 318 317 317 316 316 317 316 316 316 315 314 312 311 311 314 318 321 323 324 325 326 326 327 327 327 327 327 327 327 326 326 326 325 325 325 325 325 324 324 325 325 325 325 326 327 327 327 327 326 326 325
325 323 323 323 324 326 326 326 327 326 331 332 329 332 334 331 331 330 331 336 335 334 325 319 326 333 330 330 332 332 334 333 328 323 321 318 316 316 315 315 316 316 316 316 315 314 313 311 310 312 314 318 320 321 323 325 325 326 327 327 327 327 327 326 326 326 326 326 325 325 325 325 325 325 325 325 325 325 326 326 326 327 327 326 326 326
325 324 324 324 325 326 326 327 326 326 332 331 325 329 332 330 332 332 332 334 330 332 333 323 322 331 333 330 327 326 330 332 329 326 324 321 319 317 316 315 315 315 315 315 316 315 312 310 310 311 312 315 317 319 321 322 324 325 326 327 327 327 327 327 326 326 326 326 326 326 325 325 325 325 325 325 325 325 326 326 326 326 326 326 326 326
326 325 324 324 325 326 327 327 326 328 332 327 322 325 327 328 330 331 334 335 329 332 338 329 324 332 336 332 328 326 328 330 327 326 325 324 323 320 318 316 315 315 315 315 315 314 312 311 311 311 311 313 315 317 319 321 323 325 325 326 327 327 327 327 326 326 326 326 325 325 325 325 325 325 325 325 325 325 325 326 326 326 326 326 326 326
325 325 325 325 326 326 328 327 326 329 328 323 325 327 327 330 332 333 334 332 332 335 338 332 326 330 336 336 333 329 329 331 328 328 328 327 327 324 321 320 317 315 315 315 315 313 311 310 310 311 310 311 313 315 317 320 322 324 325 326 326 326 327 327 327 326 326 326 325 325 325 325 326 325 325 324 324 325 325 325 326 326 326 326 326 326
324 325 327 328 328 326 327 327 326 326 324 324 331 332 331 332 333 334 331 328 334 337 335 330 325 328 335 337 335 332 331 332 330 330 331 330 331 330 328 326 323 319 316 314 314 313 311 311 310 309 310 310 312 313 315 318 321 323 324 325 326 326 326 327 327 327 326 326 326 325 326 326 326 325 325 325 325 325 325 325 325 325 325 325 326 326
323 325 327 328 326 325 327 328 325 323 323 327 332 332 334 334 333 334 333 332 336 334 327 324 324 327 332 332 332 332 330 330 329 327 329 332 333 333 332 330 327 325 321 317 317 314 312 313 310 308 309 310 310 312 314 316 319 321 323 324 325 326 326 326 327 327 326 326 326 326 326 326 326 325 325 325 325 325 325 325 325 325 325 325 326 325
322 323 325 326 326 326 327 329 327 325 326 329 329 330 333 334 334 335 333 332 334 331 323 321 325 330 332 329 327 327 327 327 327 325 326 327 328 328 328 325 322 322 321 319 320 318 316 313 309 307 308 308 309 311 313 315 317 320 322 324 325 325 325 326 327 326 327 326 327 327 326 327 326 325 326 326 326 326 326 326 325 325 326 326 326 326
324 325 326 326 327 327 326 327 327 327 328 329 329 331 332 334 336 334 334 335 335 332 324 322 329 333 335 333 326 325 327 326 326 325 323 324 323 322 321 319 318 318 317 316 316 318 317 311 306 307 307 307 308 310 311 313 316 319 321 323 324 325 325 326 326 326 327 327 327 327 327 327 326 326 326 326 326 326 326 326 326 326 326 326 326 326
324 328 327 327 328 327 327 326 324 326 329 330 332 334 332 333 337 333 331 332 335 335 328 325 330 332 333 331 324 324 327 325 325 324 322 323 320 316 317 318 318 317 315 314 313 315 315 309 305 306 306 307 307 308 310 312 314 317 320 322 323 324 325 326 326 327 327 327 327 327 327 327 327 326 326 326 327 326 326 326 326 326 327 327 326 326
324 328 327 326 329 328 327 326 324 326 330 330 332 333 330 331 336 334 327 325 330 336 332 327 330 332 332 331 325 325 327 326 327 326 326 327 322 320 323 322 319 316 314 313 312 312 313 308 304 304 305 306 307 307 308 310 313 316 318 321 323 323 325 326 326 326 327 327 327 327 327 327 327 327 327 327 327 326 326 326 326 327 327 327 327 326
327 328 326 326 329 328 325 326 326 326 328 330 331 330 327 328 334 336 333 330 331 335 334 329 330 335 336 333 328 327 328 328 328 329 328 329 330 329 327 322 318 315 312 311 311 310 311 306 302 302 303 304 305 306 307 309 311 315 317 319 321 322 324 325 325 326 326 327 327 327 327 327 327 327 327 327 327 327 326 326 327 327 327 327 327 326
328 329 326 326 328 326 324 326 328 326 326 329 329 327 329 333 333 333 335 335 333 334 336 331 327 331 333 331 329 330 332 331 330 329 326 329 334 332 328 325 322 318 315 314 314 315 314 307 300 300 302 303 305 305 306 307 310 313 316 318 320 321 323 324 324 326 326 326 327 327 327 327 327 327 327 327 327 326 326 327 327 327 327 327 327 327
328 330 329 325 325 326 325 328 331 328 325 327 327 326 331 334 331 332 335 336 334 333 334 332 328 330 330 327 328 330 331 330 330 330 328 331 332 330 331 335 333 330 326 323 322 324 320 307 299 301 303 303 305 305 306 307 308 310 313 316 319 320 321 323 323 324 325 326 326 326 327 327 327 327 327 327 327 326 327 327 328 327 328 327 327 327
326 330 331 325 323 326 329 329 330 329 327 327 328 328 330 329 329 333 334 334 334 332 333 334 332 331 329 325 326 328 328 327 330 331 330 330 326 324 329 333 332 332 330 326 325 327 322 308 300 302 304 304 305 306 306 307 307 308 310 313 316 318 320 321 322 323 324 325 325 326 326 326 326 327 327 326 327 327 327 328 328 328 328 327 327 327
326 329 329 325 325 329 330 328 328 328 327 327 328 328 328 328 330 333 332 330 330 330 333 334 331 329 329 325 322 324 326 326 327 328 328 327 322 320 322 322 321 323 324 323 321 320 320 309 301 302 304 304 305 306 307 307 307 308 309 310 312 315 317 319 320 321 322 323 324 325 325 325 325 325 326 326 326 326 327 327 328 328 327 327 327 327
328 329 327 325 325 326 325 325 327 328 327 327 328 327 328 329 329 330 330 330 330 329 330 330 330 330 328 325 324 324 325 327 327 325 325 323 318 318 320 317 316 317 318 317 314 313 311 302 297 300 303 304 305 306 307 307 308 308 309 309 310 311 314 315 317 319 320 322 322 323 324 324 324 325 325 325 326 326 327 327 327 327 327 326 326 326
326 327 326 325 324 323 322 323 327 327 327 328 329 328 328 328 327 328 330 330 331 330 328 330 332 329 322 323 330 331 328 327 326 322 321 321 318 320 323 319 316 316 316 314 311 309 305 298 298 300 301 304 306 306 307 307 308 309 309 309 309 310 312 312 314 317 318 320 321 321 322 322 323 324 324 325 325 325 326 326 326 326 326 326 326 326
326 327 327 327 326 326 326 327 328 327 327 329 329 327 327 327 327 331 331 328 329 330 329 331 332 327 321 319 323 330 330 329 328 323 319 321 323 324 323 319 318 319 320 321 319 315 312 312 312 304 298 303 306 306 307 307 308 309 309 309 310 310 311 311 312 314 315 317 319 320 321 322 322 323 323 324 324 324 325 325 325 325 325 325 325 325
327 328 326 327 329 329 331 331 331 329 328 329 328 326 326 327 328 329 328 327 328 329 329 331 330 325 320 316 316 322 326 326 327 324 318 318 320 321 320 320 322 322 324 328 328 325 321 321 321 308 298 302 306 306 307 308 308 309 309 309 310 310 310 310 310 311 312 314 316 317 319 320 320 322 322 323 323 323 324 324 323 324 324 324 324 323
329 328 325 327 329 328 330 330 330 329 328 328 328 327 326 327 327 327 327 328 327 327 327 328 329 325 320 317 316 319 325 328 329 326 323 323 324 324 323 323 322 321 321 324 325 327 326 323 326 316 301 301 306 307 308 309 309 310 310 310 310 310 310 310 309 310 310 311 313 314 316 317 318 320 321 321 322 323 322 323 323 323 324 324 323 322
328 327 324 325 326 326 329 331 329 327 327 327 327 327 326 326 327 327 328 327 326 328 328 326 327 328 325 324 323 323 326 330 332 332 331 329 329 328 326 325 325 323 323 324 325 331 333 329 333 323 302 300 307 307 308 310 309 310 310 309 310 310 309 310 309 309 310 310 311 312 312 314 316 318 319 320 321 322 322 322 323 323 324 323 321 320
325 325 324 325 325 326 329 331 329 326 326 326 326 326 326 326 327 326 327 326 325 328 327 325 327 328 327 330 331 330 331 329 328 329 325 322 324 326 327 329 332 330 329 329 329 333 336 334 338 329 305 299 305 307 307 310 309 309 310 309 309 309 308 309 309 309 309 309 310 310 310 311 312 314 317 319 320 321 321 322 322 322 321 319 318 317
324 324 324 324 324 325 327 330 328 326 326 326 325 326 325 325 326 326 326 326 326 327 325 325 329 327 324 326 328 329 332 329 326 323 318 318 323 327 329 331 334 334 331 331 330 331 334 332 332 326 305 297 303 306 307 309 309 309 309 309 309 308 308 308 308 308 309 309 309 309 309 309 310 310 312 315 317 318 319 319 318 317 315 314 314 315
323 324 324 324 325 324 325 327 328 326 326 326 325 325 325 325 326 326 326 326 326 327 325 325 327 326 322 323 323 324 325 324 322 320 320 323 326 328 330 331 334 336 332 331 330 329 330 327 327 330 315 300 302 306 307 308 308 308 309 309 308 308 307 306 306 307 307 308 308 309 309 309 309 309 309 310 312 313 313 313 312 311 311 312 314 315
321 323 324 324 324 325 324 325 327 327 326 326 326 326 325 325 326 325 326 326 326 326 327 326 327 325 322 323 323 322 323 323 321 321 322 326 329 331 333 332 333 333 331 331 331 329 330 328 329 333 319 303 303 308 309 308 308 309 311 311 309 308 307 306 306 306 306 307 308 308 309 309 309 309 309 309 309 309 310 310 310 310 311 313 314 314
320 322 324 323 324 326 324 323 325 326 327 326 325 325 325 325 325 325 325 325 325 325 326 327 325 324 323 324 322 321 321 321 321 319 319 322 326 330 330 329 330 329 326 326 326 325 327 327 320 314 308 304 309 313 311 309 309 311 313 312 310 308 306 305 305 305 305 307 307 308 308 308 308 309 309 309 309 309 309 309 310 311 311 312 313 313
321 322 323 323 324 326 324 322 323 325 327 328 324 322 324 324 324 325 325 324 324 324 324 324 324 325 323 322 321 320 319 319 319 319 319 319 320 322 323 323 326 326 323 321 321 321 324 321 310 304 306 309 313 313 311 311 311 312 313 311 309 308 307 305 305 304 305 306 307 307 308 307 308 309 309 310 310 309 309 309 310 310 310 311 311 310
322 322 322 322 324 324 322 321 325 326 326 326 323 321 322 322 322 324 324 323 323 323 323 323 323 323 321 320 321 321 319 319 320 321 322 321 319 318 319 320 321 323 323 322 322 322 322 317 308 305 308 311 311 311 311 311 311 311 311 310 309 308 306 305 304 304 304 305 306 307 307 307 308 309 309 310 309 308 308 309 309 309 309 308 308 308
321 321 321 322 324 324 322 322 326 328 325 323 324 322 322 322 323 324 325 324 322 322 323 323 322 321 320 321 322 322 320 320 320 321 320 319 318 317 318 318 319 321 323 324 323 321 319 315 311 310 310 311 311 311 310 310 311 310 309 308 308 307 305 304 304 304 304 305 306 306 306 307 308 308 309 309 308 307 307 307 308 307 307 306 305 305
318 320 320 322 324 324 323 324 325 327 326 324 324 322 322 322 322 324 325 323 321 321 321 321 322 321 321 322 324 324 322 320 320 321 318 317 317 317 317 317 319 322 322 318 315 314 313 313 313 313 313 313 312 311 311 313 311 308 308 308 307 305 304 303 303 304 304 304 306 307 307 307 307 307 307 306 306 306 306 306 306 305 305 304 303 303
316 318 318 321 323 322 323 324 325 327 327 324 322 321 320 321 322 323 324 323 322 323 322 320 321 321 321 321 324 325 323 320 320 319 317 317 319 319 320 320 321 320 316 312 310 310 311 312 313 312 312 311 312 312 313 313 310 307 307 307 306 304 303 302 304 304 304 304 306 307 306 306 306 306 306 305 305 306 305 304 304 304 303 303 302 302
315 316 317 319 321 321 323 325 325 326 326 324 323 322 321 324 325 324 325 324 322 322 321 320 320 320 321 322 322 322 321 322 322 319 320 325 325 322 322 322 320 316 311 309 311 311 311 312 311 310 310 309 310 312 312 311 308 306 306 306 306 303 301 303 306 307 307 307 306 305 305 305 305 305 305 304 304 304 302 302 302 301 301 300 300 301
314 316 316 319 321 321 323 325 325 325 324 324 326 325 323 323 323 324 325 324 321 320 320 320 320 319 321 321 319 319 321 322 320 319 324 329 328 324 321 319 318 316 311 310 310 310 310 310 309 309 309 309 310 311 311 309 306 304 305 305 304 301 302 306 309 310 309 308 305 303 303 304 304 304 304 304 304 302 301 300 300 299 299 299 299 299
315 316 316 319 321 321 322 324 324 325 326 325 323 321 320 320 321 325 326 322 320 324 322 319 320 321 321 319 316 317 319 319 318 323 327 329 326 324 320 313 309 309 309 307 309 309 309 308 308 308 308 309 309 310 308 307 304 302 303 304 301 301 305 308 309 309 308 306 303 302 303 303 303 304 304 304 303 301 300 300 299 298 298 298 298 298
317 318 317 318 320 321 322 323 324 327 325 321 319 317 319 323 325 323 319 316 320 327 323 318 320 323 322 318 315 317 318 317 318 322 325 326 325 323 321 314 310 310 309 307 307 308 306 306 305 305 306 307 307 306 306 305 303 302 302 301 301 304 308 309 308 307 306 304 303 302 302 303 303 303 303 303 302 301 300 300 299 298 297 297 297 298
318 319 319 319 319 320 321 323 326 326 319 314 317 319 319 320 317 312 310 312 317 321 320 319 320 321 320 318 316 317 318 318 318 319 321 323 323 321 322 320 315 311 307 304 304 304 303 303 303 303 304 304 303 304 304 303 302 301 300 300 303 306 307 307 306 305 303 303 302 302 303 303 303 303 303 302 301 300 300 299 298 297 297 297 297 297
319 320 321 320 320 321 323 323 321 320 314 311 314 316 313 311 308 305 307 310 311 311 314 317 317 316 317 317 317 316 315 316 319 318 317 319 319 320 324 323 316 310 304 301 302 302 301 301 302 302 303 302 301 301 302 302 302 300 299 301 305 306 305 304 303 302 302 302 302 302 302 302 302 302 302 301 301 300 298 298 297 297 296 296 297 297
317 316 316 318 319 319 320 319 315 313 312 311 310 309 308 307 306 305 306 307 306 306 308 310 311 312 314 316 318 317 315 316 318 316 314 316 318 320 321 317 310 305 301 299 300 301 301 300 300 300 301 301 301 300 300 300 301 300 300 303 305 304 303 303 302 301 301 301 301 301 301 301 301 301 301 300 300 298 297 297 296 296 296 296 296 296
311 310 312 316 318 316 315 315 312 310 310 309 307 306 306 306 305 305 305 306 305 305 305 304 306 309 311 313 314 314 314 315 315 314 314 316 317 317 317 314 306 299 296 297 299 299 299 298 298 298 299 300 301 301 300 300 300 300 301 302 302 302 302 302 301 301 301 301 301 300 300 300 300 299 299 299 298 297 297 296 295 295 295 295 296 296
309 310 312 314 316 317 315 312 309 308 307 307 306 305 304 304 304 304 304 304 303 304 304 304 304 306 307 308 309 310 311 312 312 312 313 314 316 315 316 319 313 301 296 297 298 297 297 297 296 295 296 298 301 301 300 299 299 300 300 301 300 300 300 300 300 300 300 300 300 299 299 299 299 298 298 297 296 296 296 296 295 295 295 295 295 295
309 310 311 311 313 314 312 308 306 306 306 304 304 304 303 304 304 304 303 302 302 302 302 303 305 305 305 306 307 308 309 309 309 310 310 311 314 313 314 316 311 302 299 300 300 299 297 296 295 294 294 297 300 300 299 299 299 299 299 299 299 299 299 298 299 299 299 300 299 298 298 298 298 298 297 296 295 295 295 295 295 295 295 295 295 296
308 310 311 311 311 310 308 306 306 308 307 304 302 302 302 303 304 304 302 301 301 300 300 301 303 304 305 306 306 306 306 306 306 307 308 308 308 309 310 307 301 297 297 299 300 299 297 295 295 295 294 297 298 298 298 298 298 297 297 298 298 298 298 298 298 298 298 298 298 298 297 297 297 297 296 295 295 295 295 295 295 295 295 295 296 296
308 309 310 310 311 311 308 306 306 308 308 305 302 300 300 301 302 301 300 300 299 299 299 300 301 302 303 304 305 305 305 305 305 306 307 307 307 307 306 301 295 294 296 298 298 299 298 297 295 294 295 297 298 297 297 297 297 296 296 297 297 297 297 297 297 297 297 297 297 297 297 296 296 295 295 294 294 294 294 295 295 295 295 295 296 296
309 309 309 309 310 308 305 304 304 305 306 304 301 300 301 301 300 299 299 299 298 298 299 300 300 301 302 302 301 302 304 305 305 304 305 305 303 301 299 297 295 295 296 297 296 296 296 297 296 295 295 297 296 295 295 295 295 295 295 295 296 296 296 296 295 295 296 296 296 296 296 295 295 294 294 293 293 293 293 294 294 294 295 295 295 296
Wind_Speed
5 5 6 10 12 13 12 10 5 2 7 11 8 6 6 5 4 4 3 3 4 5 5 9 12 15 11 9 12 8 3 5 8 9 9 8 7 7 8 9 10 10 10 14 21 22 23 26 28 30 31 30 30 31 33 33 35 36 35 35 36 36 35 35 35 35 34 34 33 33 34 35 34 34 34 34 34 33 33 31 30 30 29 28 27 26
5 9 14 15 13 10 11 10 4 3 8 10 8 6 6 6 5 4 3 3 2 4 4 4 8 16 12 10 11 5 5 11 12 12 13 12 11 10 11 13 11 8 8 11 14 16 21 24 26 28 29 30 31 33 35 35 37 37 36 37 37 36 36 37 38 37 37 37 36 35 35 36 36 35 35 35 34 34 34 33 32 32 31 30 29 28
6 12 17 14 9 7 10 11 7 6 8 8 6 6 6 4 2 2 2 2 1 4 3 2 4 14 12 9 10 7 10 15 13 13 14 13 13 12 12 13 11 9 9 10 10 12 20 24 25 27 28 31 33 35 36 36 37 36 37 39 38 37 37 38 38 39 39 38 37 36 35 34 34 34 34 33 33 33 33 33 33 33 32 32 30 29
8 11 12 11 8 9 10 11 10 6 6 6 6 6 4 4 4 2 3 1 1 2 1 1 4 11 10 6 9 11 13 15 12 12 13 12 13 14 13 11 11 12 12 12 10 10 16 21 23 26 28 31 33 34 34 35 36 36 38 40 39 38 38 39 39 39 39 37 36 35 34 33 31 31 30 30 31 32 32 32 32 32 32 32 31 30
9 5 10 12 10 12 11 11 12 8 4 4 6 7 5 5 5 2 1 2 1 2 1 0 4 9 9 8 10 9 9 14 12 10 11 12 13 14 12 11 11 12 12 12 11 10 12 17 23 28 31 31 33 34 35 36 38 39 40 40 40 39 39 40 39 39 38 36 35 33 31 30 29 28 28 28 30 31 31 32 31 31 31 31 31 30
10 6 13 16 12 12 11 10 11 9 6 4 5 6 8 8 5 5 3 3 3 2 0 1 3 5 5 6 9 5 4 11 9 8 14 15 14 12 11 12 12 11 11 11 12 10 12 18 23 27 30 31 32 35 37 38 39 40 41 40 40 40 40 40 40 39 37 37 36 34 32 31 29 28 30 33 33 32 32 33 31 30 30 29 30 30
6 7 10 15 15 13 11 9 10 10 6 4 5 6 8 9 8 7 5 3 1 3 1 2 3 5 5 6 7 3 4 11 7 6 13 13 12 11 10 12 11 11 11 11 11 10 12 17 20 23 28 32 34 36 36 36 39 40 39 39 40 41 41 40 39 38 37 37 37 37 37 36 33 33 35 36 34 33 34 33 32 31 30 29 29 29
6 10 9 13 16 13 12 10 10 12 8 4 5 9 10 9 9 8 6 4 2 2 1 2 2 4 8 6 4 2 4 11 10 10 13 11 11 11 11 12 12 13 12 11 11 10 12 17 20 24 30 35 37 36 35 37 39 40 39 40 40 40 41 40 38 38 38 39 39 39 38 37 36 37 37 33 31 32 32 32 32 31 30 29 28 28
6 12 12 15 14 11 11 9 11 13 6 3 5 10 9 8 7 6 5 3 1 2 2 2 3 2 8 5 1 1 4 11 14 14 12 10 12 11 11 12 13 13 12 11 12 12 13 18 23 27 29 32 35 35 36 39 40 39 40 39 39 39 39 39 38 38 39 39 40 39 38 37 37 38 36 31 29 30 30 31 31 30 29 29 28 28
3 8 11 14 12 9 8 9 14 13 4 3 6 9 7 5 5 4 4 3 3 2 6 5 5 4 8 6 3 2 3 11 13 10 8 9 11 10 10 11 11 9 9 10 11 12 14 20 26 26 25 27 30 33 35 37 36 37 37 37 37 38 38 38 38 39 39 39 39 38 37 37 38 38 35 31 30 30 30 30 30 30 29 29 28 28
1 2 5 8 7 7 8 9 11 11 9 7 7 9 7 5 4 3 2 4 1 5 5 8 10 6 7 5 5 5 5 8 9 6 6 8 9 9 7 7 8 8 8 8 9 11 13 18 22 22 23 26 29 30 32 33 33 34 34 34 36 37 37 37 38 38 39 39 39 39 38 39 40 38 33 32 32 32 31 32 31 31 29 29 29 28
3 2 2 4 4 8 12 8 2 7 14 9 5 6 4 3 3 3 3 2 3 5 2 7 11 9 8 5 4 5 4 3 6 7 7 8 8 7 6 5 7 7 7 7 8 8 9 12 15 17 22 26 26 27 31 33 33 32 33 34 35 36 37 36 37 38 39 39 39 40 40 41 41 38 34 34 35 34 34 34 33 31 30 29 29 28
6 5 4 4 3 10 15 9 2 3 11 8 6 8 5 1 1 2 2 2 5 4 2 3 7 6 10 9 6 9 8 7 8 8 7 8 7 7 6 7 6 5 6 7 7 7 7 8 10 14 20 23 24 27 31 32 32 33 34 35 35 37 37 37 37 38 39 39 40 41 41 42 40 37 36 37 37 35 35 35 33 31 31 31 30 30
5 6 6 4 2 8 13 12 5 4 8 9 10 10 7 5 4 7 6 3 4 3 2 3 3 2 5 6 10 14 15 13 9 9 9 8 7 8 7 6 5 4 6 6 7 7 7 7 9 13 18 21 23 28 30 31 32 33 33 35 36 37 37 38 38 38 38 40 41 41 42 42 39 38 38 39 38 37 35 34 33 33 33 32 33 33
9 5 8 9 4 8 15 15 14 11 9 9 8 7 7 7 5 6 6 4 3 1 2 2 2 3 4 2 6 9 10 10 7 6 7 6 8 7 6 6 6 7 7 7 7 7 7 9 11 14 17 19 23 26 29 31 32 32 33 34 36 37 37 37 38 38 39 40 41 42 41 41 40 39 39 39 39 38 36 35 34 33 34 34 34 34
10 5 7 11 3 9 17 14 13 14 9 5 5 6 7 6 5 3 3 4 3 1 1 3 3 3 3 7 9 6 7 8 8 7 5 7 7 5 6 8 8 9 8 7 7 8 9 10 13 15 17 20 23 24 27 30 31 32 33 34 36 37 36 35 38 39 40 41 41 41 41 41 40 39 39 39 39 38 36 35 35 34 35 35 34 33
9 5 8 11 4 9 12 11 14 13 9 5 5 7 5 4 6 4 2 1 3 2 3 4 6 4 3 11 13 11 13 12 10 8 6 8 6 4 7 9 8 9 8 7 7 8 9 9 12 16 19 21 22 22 25 28 30 32 32 32 34 35 34 34 36 38 39 39 39 39 40 39 39 39 40 40 40 38 36 35 35 35 35 35 34 33
6 3 6 11 10 7 3 7 13 7 4 7 8 8 5 3 3 4 1 2 3 4 4 4 9 4 1 7 5 5 13 14 11 7 5 7 6 6 9 9 9 8 7 7 8 8 8 8 11 15 18 20 21 21 23 25 27 29 30 31 32 33 33 34 35 36 37 37 37 38 39 39 39 40 40 40 39 37 35 35 35 35 35 35 34 32
4 3 2 6 8 5 2 5 9 2 2 5 7 9 7 3 3 3 3 2 2 5 4 2 4 3 8 9 3 1 9 10 8 6 5 7 7 7 8 9 9 7 6 7 7 8 7 7 10 14 15 16 18 19 20 20 22 24 27 29 30 32 33 34 34 35 35 36 37 38 38 38 38 38 39 38 37 35 34 35 35 35 35 35 33 31
4 4 2 2 2 6 4 5 8 4 2 2 5 7 4 3 5 5 4 3 3 5 5 3 2 3 8 8 6 8 9 8 7 5 5 8 7 6 6 7 7 5 5 6 6 6 5 5 9 10 9 10 12 15 17 17 18 21 23 26 27 29 30 30 31 33 34 35 36 36 36 36 37 37 37 36 34 34 35 35 35 35 35 34 32 31
3 3 3 1 0 5 7 6 11 13 7 4 7 9 5 3 3 2 3 3 3 4 5 4 5 6 5 6 10 13 11 11 10 6 7 10 9 7 7 7 6 4 5 6 6 6 5 5 6 5 4 6 8 11 14 16 17 18 20 23 26 27 28 29 30 31 33 34 34 35 35 35 35 34 34 33 33 34 35 35 35 35 34 33 32 31
4 2 5 4 3 7 9 6 9 12 10 7 8 9 9 7 4 3 5 3 2 3 3 3 8 8 3 5 9 10 9 10 8 5 7 10 9 7 7 7 6 5 6 7 6 6 5 5 7 6 5 5 6 9 11 14 17 18 20 22 23 25 27 29 30 30 32 32 32 34 34 33 33 32 31 32 32 34 35 35 35 35 34 33 32 30
3 4 6 4 3 5 4 1 1 6 7 4 3 6 7 5 5 7 9 5 3 3 2 2 7 7 3 5 7 7 7 7 5 5 7 9 8 7 8 8 6 6 8 7 6 6 5 6 9 9 8 7 8 9 10 13 16 18 19 20 22 24 26 27 28 29 29 30 31 31 31 31 30 30 31 32 33 34 35 36 36 35 34 33 31 29
2 4 5 3 1 2 2 2 4 5 6 3 2 5 7 9 10 8 5 4 3 5 5 4 9 7 4 4 5 6 4 5 5 5 6 8 7 7 9 8 7 7 8 7 6 6 5 7 8 8 8 9 9 10 11 13 15 16 17 18 20 22 23 24 26 27 27 28 29 28 28 29 30 30 32 33 34 35 36 36 35 34 33 31 29 28
3 6 7 5 3 2 3 3 3 1 4 6 8 9 11 15 13 5 2 3 4 9 9 7 12 8 1 2 3 5 5 5 7 5 6 6 7 7 7 7 7 7 7 7 6 5 5 5 6 6 7 8 9 10 12 13 14 15 15 17 18 19 20 21 22 24 25 26 27 27 28 29 30 31 33 34 35 35 35 34 34 33 31 30 29 29
3 5 8 8 8 8 8 9 9 9 8 7 10 13 16 19 18 10 5 5 8 11 10 11 13 5 4 5 5 4 5 5 7 5 5 6 7 7 7 6 6 5 6 7 6 5 4 4 4 5 7 8 8 10 12 13 14 15 15 16 17 18 19 19 21 22 24 24 25 26 28 29 30 32 33 34 34 34 34 33 32 31 30 29 29 28
2 5 10 10 10 11 8 5 7 10 9 8 11 16 18 18 19 14 7 8 14 11 9 15 13 1 2 4 5 5 5 6 6 5 5 6 7 7 6 6 6 5 6 6 5 4 4 4 5 5 6 8 8 9 11 12 13 14 15 16 16 17 18 18 19 20 22 23 24 26 28 29 30 31 32 32 32 32 32 31 30 29 29 28 28 27
3 6 13 15 15 8 2 2 8 13 14 17 18 19 19 17 17 15 11 16 16 7 10 18 10 4 5 6 6 7 6 4 6 7 7 6 6 6 5 5 5 5 5 5 4 5 4 4 5 4 6 8 8 9 11 13 14 14 15 16 16 17 19 19 19 20 21 22 24 27 29 29 29 29 29 30 30 30 29 29 28 28 27 27 26 26
5 7 12 16 18 9 3 2 11 15 15 17 17 18 19 18 19 19 20 24 17 10 18 19 10 10 12 7 7 9 7 6 7 7 5 4 4 5 4 5 5 5 5 5 4 4 4 4 4 4 6 8 8 11 12 14 15 15 16 17 17 19 20 20 21 22 23 24 27 29 29 27 27 27 28 28 29 29 28 27 27 27 26 25 25 24
4 7 10 12 15 12 4 1 9 14 14 13 14 16 16 18 21 22 25 27 18 15 24 17 9 14 16 10 10 9 6 6 4 1 2 2 3 5 4 5 6 5 5 5 5 5 4 4 5 5 5 8 11 13 14 15 16 15 16 16 17 19 20 20 22 23 25 28 29 29 27 26 26 26 27 28 28 28 27 27 27 26 25 24 23 22
5 7 8 8 8 11 9 5 5 11 13 13 14 14 14 16 18 20 22 21 15 19 28 20 11 16 12 9 9 7 3 3 3 3 4 4 5 5 5 6 7 6 5 5 5 6 5 5 6 5 5 8 12 14 15 16 14 13 15 15 16 17 17 19 22 24 26 29 29 28 27 27 27 26 27 27 27 27 27 26 26 24 23 23 23 23
7 5 4 5 5 8 11 10 6 7 10 12 12 13 16 17 18 20 23 22 19 23 28 21 16 17 8 7 8 9 7 8 11 10 8 6 6 6 6 8 8 6 5 6 6 5 6 6 6 6 7 10 13 15 16 15 12 12 16 17 17 16 16 18 21 24 26 28 27 27 28 28 27 26 26 26 27 27 26 25 24 24 24 25 25 25
8 7 4 6 6 8 12 12 7 5 6 8 11 17 22 23 23 23 24 25 23 22 20 16 14 12 6 9 12 14 12 15 19 14 9 8 8 7 8 8 7 7 6 6 7 7 7 7 7 8 11 13 17 19 18 14 12 15 19 18 17 17 16 18 20 22 25 26 27 28 29 28 27 26 27 27 26 26 26 25 26 27 28 28 27 27
8 9 5 6 7 8 7 8 6 6 9 10 13 21 26 27 27 25 24 23 19 16 14 14 10 5 9 12 15 13 12 16 18 11 6 8 9 9 10 9 8 8 7 6 7 8 8 8 8 12 16 19 22 23 19 16 16 19 20 18 17 17 17 18 19 21 23 25 26 28 28 28 28 28 28 27 27 27 27 28 29 29 29 29 29 29
7 8 5 5 6 4 6 8 6 9 12 11 11 15 19 20 19 19 20 18 16 16 20 24 18 8 7 8 10 9 11 13 13 9 6 9 11 11 12 11 9 8 8 8 9 9 8 8 9 14 19 21 23 21 19 18 18 19 19 18 17 17 17 18 19 20 23 25 27 28 28 29 29 29 29 28 28 28 29 30 31 31 30 30 30 31
5 5 4 3 4 2 5 8 7 5 5 5 5 8 9 10 11 12 18 22 23 24 25 27 22 10 4 4 5 5 6 6 7 10 12 14 13 12 12 10 8 8 8 9 9 10 13 15 16 19 21 22 20 17 17 19 18 17 17 16 16 17 17 18 19 21 24 26 28 29 30 31 31 31 31 30 29 30 32 32 33 32 31 31 30 30
4 3 2 3 5 4 5 8 6 4 4 2 6 10 13 16 18 15 15 20 19 17 17 18 18 15 12 8 5 4 5 2 3 11 19 20 13 10 10 7 7 8 10 12 15 18 22 25 26 27 26 25 22 20 21 23 20 16 15 16 16 17 17 18 21 24 26 28 30 32 32 32 32 32 32 31 31 33 34 34 34 34 33 32 31 31
4 4 3 3 4 2 4 6 5 6 9 9 12 16 17 16 13 8 6 13 10 12 17 21 21 20 14 8 6 6 6 3 6 15 19 14 6 7 9 8 9 12 14 16 18 20 26 29 28 27 24 21 22 24 25 25 20 16 15 17 18 17 17 19 23 26 27 29 32 33 34 33 33 33 32 32 34 36 35 34 34 34 33 33 32 32
3 2 3 2 3 2 3 5 5 7 12 13 11 10 10 9 10 12 4 15 13 15 19 21 23 21 13 10 9 8 7 5 14 16 9 4 7 10 11 11 11 13 16 19 20 21 26 27 24 21 19 17 22 26 26 23 19 15 16 19 19 17 18 21 26 27 28 30 31 32 32 32 32 33 33 33 35 35 33 32 32 31 31 31 30 29
3 2 2 4 5 4 5 5 4 5 8 6 5 9 12 13 14 11 8 16 15 13 15 16 21 19 12 12 11 10 10 13 17 10 3 6 8 9 10 10 11 11 14 19 22 22 22 19 17 17 18 18 23 25 24 20 17 15 18 20 19 18 21 24 27 27 28 29 28 27 29 30 31 32 33 34 34 32 30 30 29 28 28 28 28 27
2 2 3 5 7 8 9 7 4 5 6 4 5 10 15 16 11 10 13 11 6 7 12 15 16 11 11 14 12 11 14 17 14 5 6 7 8 6 5 4 4 6 9 12 14 15 15 13 14 16 18 20 22 23 21 19 16 17 19 19 19 21 24 26 27 28 28 27 24 24 26 28 30 31 33 33 32 30 29 28 27 27 26 26 26 26
3 3 2 4 5 6 7 6 4 5 3 1 3 8 13 12 7 8 7 5 5 2 7 11 11 10 13 15 14 13 15 18 15 7 4 3 2 2 3 4 3 2 5 6 7 10 10 10 12 15 18 20 19 19 18 16 17 19 18 19 22 24 25 26 27 28 27 24 23 23 24 26 28 30 31 31 30 29 29 28 26 26 25 25 26 27
5 5 3 4 3 2 4 6 5 4 3 4 1 3 5 3 3 4 4 6 7 6 4 1 5 8 11 13 15 17 16 13 9 2 4 4 4 5 5 4 4 4 6 6 7 7 6 8 11 14 17 17 15 15 14 15 18 19 18 21 25 25 25 26 26 25 24 23 23 23 24 26 27 29 29 30 29 29 28 27 26 26 25 26 26 27
4 4 3 4 4 3 5 5 3 2 4 5 3 2 1 1 2 4 4 5 7 8 6 5 3 3 4 5 7 10 8 5 3 4 5 3 3 4 5 5 5 5 7 10 11 10 9 10 12 15 16 14 11 11 11 14 18 18 19 23 25 23 24 26 24 22 22 23 23 23 24 24 25 26 28 28 28 28 27 27 27 27 27 27 27 26
1 3 3 3 3 3 3 2 1 1 3 4 3 3 3 3 3 4 3 6 7 6 5 6 7 8 6 5 4 3 4 4 3 2 2 1 2 4 5 6 6 6 8 11 13 12 11 10 11 15 17 15 10 7 7 11 16 18 19 21 21 20 21 22 21 20 22 23 23 23 22 22 23 25 26 27 28 28 28 27 26 26 27 28 28 27
2 1 2 2 1 2 3 2 2 3 3 4 4 5 6 7 6 6 7 8 7 6 6 6 6 7 8 7 7 7 6 5 5 4 3 3 4 5 5 5 6 6 7 9 9 10 10 10 10 12 16 16 12 8 5 6 11 16 18 18 17 16 17 17 18 20 21 22 23 22 21 21 22 23 24 25 26 27 27 27 27 27 26 27 28 28
3 1 2 1 1 2 3 4 5 5 5 5 5 7 9 10 8 7 8 8 7 7 8 8 7 8 8 8 9 8 7 7 7 6 5 4 5 5 5 6 7 7 7 8 8 9 10 11 11 12 14 17 16 12 9 7 8 11 14 15 15 15 15 16 17 19 21 22 21 20 20 21 22 23 23 24 25 26 26 26 27 27 26 27 27 27
2 1 2 1 1 2 3 3 3 3 5 9 8 7 9 10 9 9 8 7 7 9 9 9 8 8 9 9 8 8 8 8 8 7 7 6 5 6 6 6 7 9 12 14 15 14 12 12 12 13 14 18 19 17 15 13 12 11 12 12 12 14 15 16 17 19 20 21 20 20 21 22 22 23 23 24 26 27 27 28 29 29 30 31 31 29
1 1 1 2 3 3 2 3 3 2 6 10 10 10 9 8 8 10 10 10 10 11 10 10 8 7 8 8 7 7 8 8 6 6 7 7 6 6 7 7 8 10 13 16 18 18 16 14 14 15 16 19 20 19 18 17 16 14 13 11 10 11 14 15 16 18 20 20 19 19 20 20 21 22 22 23 25 27 29 30 31 32 32 32 33 33
1 1 0 1 3 3 2 3 3 2 3 5 7 8 8 7 8 10 10 11 12 11 11 11 8 7 7 7 7 7 7 7 6 5 5 6 6 7 8 8 10 12 13 15 17 19 18 16 15 15 18 20 19 18 18 18 18 16 14 12 10 10 12 14 15 17 18 18 18 18 18 18 19 20 21 22 23 24 26 27 29 31 31 30 31 32
1 1 1 2 3 3 3 2 3 3 2 2 3 3 4 3 8 9 8 9 10 9 9 9 9 8 8 6 6 6 6 7 7 6 5 6 7 9 10 10 10 12 15 17 17 18 20 20 18 17 19 20 20 19 19 19 18 16 15 13 12 10 11 12 14 16 17 17 17 17 17 18 18 18 19 20 20 20 21 21 23 27 29 28 28 28
Wind_Direction
177 178 205 210 204 204 204 206 206 170 147 145 148 164 178 194 226 233 231 264 167 154 235 225 241 254 240 237 245 248 235 224 241 248 248 246 245 243 240 241 233 230 237 240 240 236 230 230 230 228 227 226 227 228 227 227 227 227 228 228 230 231 230 230 230 229 228 227 227 228 232 235 239 242 244 245 247 248 250 251 251 251 251 251 250 250
175 192 212 216 207 196 195 199 187 143 148 146 153 169 188 203 224 226 207 262 184 164 252 243 253 261 252 244 250 250 253 249 237 236 244 242 242 243 240 244 240 236 246 243 240 233 227 227 228 225 224 222 224 226 226 226 227 227 228 228 230 230 229 230 230 229 230 229 228 229 232 235 238 241 244 246 249 250 251 251 251 251 252 252 252 252
192 213 212 205 199 184 184 192 185 158 157 159 159 166 192 202 212 281 281 304 153 172 263 342 283 268 261 243 244 232 235 248 238 229 238 237 239 240 236 241 242 240 243 241 234 224 223 223 223 221 220 220 224 226 225 225 227 226 227 229 229 229 229 230 230 230 231 232 233 235 237 239 241 245 248 251 253 253 253 252 252 252 252 253 254 255
207 221 200 178 175 177 180 185 179 164 164 171 160 161 193 187 171 251 283 274 153 167 214 5 303 279 273 247 239 230 229 247 245 231 236 234 234 237 235 233 233 234 237 240 235 220 221 220 218 218 217 220 222 224 224 223 224 225 226 228 227 228 230 231 231 231 232 233 235 238 240 242 244 247 250 252 252 251 251 251 252 252 252 253 255 256
226 214 163 167 177 178 181 184 181 178 181 189 177 166 165 176 176 159 169 171 2 5 94 301 301 282 266 250 248 235 226 247 249 235 240 239 234 237 239 235 229 230 232 236 233 219 215 216 216 217 218 219 219 220 221 221 223 225 226 228 227 228 230 231 232 232 231 231 232 234 235 237 240 243 244 245 246 245 245 248 250 252 253 253 254 254
234 207 166 173 180 178 182 188 190 187 182 204 213 182 157 159 145 111 126 97 38 320 270 185 266 273 268 253 255 253 236 249 242 225 238 240 235 233 235 238 232 230 230 232 233 218 211 217 217 218 218 218 219 221 221 222 225 226 227 227 227 228 229 230 230 230 228 226 227 227 225 226 228 232 236 237 239 240 243 248 251 253 253 252 253 253
216 206 183 175 173 175 185 192 191 181 174 211 207 162 143 143 132 132 156 131 133 251 243 151 223 269 286 262 248 235 240 255 247 221 240 242 240 231 227 236 234 232 233 232 234 220 214 220 216 216 217 216 220 224 223 223 226 226 225 226 226 227 228 228 227 226 224 223 224 225 225 226 226 228 235 237 238 241 245 249 251 252 252 252 252 253
171 184 187 177 172 175 191 193 185 176 175 221 175 140 133 137 147 157 160 173 217 275 314 141 147 274 278 264 246 185 221 264 264 243 242 241 241 236 226 232 230 229 229 228 232 222 219 222 217 217 217 218 222 224 222 223 225 225 225 225 226 226 226 226 225 223 222 222 223 224 225 227 228 231 236 239 239 242 246 248 249 250 251 251 252 253
167 185 184 177 176 184 194 177 165 166 168 231 165 135 135 138 150 151 141 156 43 1 260 206 129 248 270 260 240 119 217 255 257 247 246 242 240 238 228 229 228 229 228 225 229 224 219 223 224 224 222 221 224 221 222 225 225 225 225 225 224 224 224 223 223 223 223 223 223 223 223 225 230 234 237 238 240 243 245 246 248 248 249 250 251 253
149 200 189 178 182 188 176 147 159 165 158 191 141 101 92 93 94 102 119 113 69 282 233 194 162 227 273 251 182 100 221 245 255 252 247 241 238 235 229 230 230 233 233 229 233 231 225 224 227 230 228 227 227 224 224 226 225 225 224 222 222 222 222 222 222 222 223 223 223 222 222 225 230 233 234 235 237 240 241 243 245 245 246 247 249 251
54 266 207 190 188 170 139 135 162 159 140 146 121 88 72 53 53 57 63 87 88 261 219 175 176 196 275 261 172 179 214 228 246 251 243 242 242 240 235 231 230 232 235 232 236 240 236 233 232 231 229 230 230 227 226 225 224 224 222 221 222 222 222 222 221 221 222 222 221 222 223 227 231 232 230 230 232 234 236 239 241 242 244 246 248 249
277 309 247 231 195 140 129 128 130 135 144 146 117 112 99 32 26 31 25 73 217 256 227 174 173 180 237 249 163 209 237 207 221 237 248 250 252 255 248 241 234 230 235 236 240 245 242 239 236 229 229 230 228 226 225 224 222 221 221 220 221 222 222 221 221 221 221 221 221 223 225 229 232 230 228 229 232 232 233 236 238 239 241 243 245 247
241 235 235 261 203 152 142 133 43 125 158 157 129 139 144 134 190 194 197 216 226 263 335 166 159 186 237 252 250 255 263 245 222 220 237 245 251 263 259 250 244 233 237 236 234 240 238 237 232 226 229 230 225 223 224 224 220 218 219 218 219 221 222 221 220 220 220 220 222 224 226 229 231 229 230 232 234 234 235 236 236 236 238 240 241 243
204 225 222 223 211 178 160 147 151 176 179 174 159 163 173 163 187 206 203 235 243 266 331 137 142 252 259 266 254 248 252 251 238 223 227 232 240 251 259 263 267 258 249 240 231 229 226 231 231 228 230 230 226 225 225 224 221 218 217 216 217 220 222 220 220 220 220 221 224 226 228 229 229 229 231 233 235 236 236 237 236 237 239 240 243 245
183 214 204 189 192 193 181 170 169 167 176 188 165 160 178 170 188 205 196 220 228 281 316 170 177 206 185 236 244 236 251 260 259 242 229 235 243 251 277 287 279 265 251 244 241 235 228 229 233 235 236 233 231 229 227 225 222 217 215 215 216 219 219 217 218 218 220 223 226 227 228 229 229 231 232 234 237 237 236 237 238 240 242 243 246 248
194 245 197 180 199 194 186 179 163 152 163 197 151 154 191 180 156 157 186 193 163 117 252 201 235 218 203 272 268 250 268 271 265 259 244 249 252 256 278 274 263 258 249 241 243 243 241 238 238 241 241 240 237 233 229 226 222 218 216 215 217 219 218 217 217 218 221 225 226 226 228 229 230 231 232 235 237 238 237 238 240 242 244 246 248 249
190 236 182 171 194 202 189 174 165 163 164 170 164 175 184 140 121 124 233 53 88 231 224 180 238 276 318 282 267 241 247 257 257 252 243 252 257 244 255 256 251 253 249 239 237 240 243 241 239 240 241 242 241 237 233 229 225 221 218 216 217 220 219 218 219 220 222 224 224 226 228 229 230 231 233 236 237 238 238 239 241 244 246 247 248 248
171 162 178 179 183 198 209 167 174 185 161 153 174 175 134 81 90 103 223 5 52 250 254 195 226 242 205 262 277 219 229 241 252 265 274 271 266 250 252 257 253 251 251 248 241 241 246 246 245 243 242 242 241 239 237 233 229 225 222 220 220 220 219 220 222 223 224 224 224 227 229 229 231 232 235 237 237 237 237 239 242 243 245 247 247 247
151 108 192 202 179 156 56 165 173 259 312 161 166 162 137 152 194 149 186 214 200 239 273 268 244 224 203 224 278 211 216 226 250 280 282 258 250 247 255 263 262 258 259 255 244 242 242 239 241 242 243 244 239 236 235 232 230 226 224 224 223 224 224 224 225 225 226 226 227 229 231 231 232 233 235 236 236 236 237 240 242 243 245 247 247 246
158 130 161 236 169 145 153 184 176 182 306 56 123 154 151 166 185 181 182 175 188 231 267 308 306 238 215 213 225 237 238 240 247 250 246 249 250 247 251 260 264 266 265 262 257 252 243 233 240 242 249 251 239 233 231 229 228 227 226 226 225 227 228 227 227 228 229 230 230 232 233 234 234 234 235 236 235 235 238 242 243 245 247 247 246 246
164 130 138 153 62 162 176 195 188 183 173 146 156 170 184 177 143 168 199 160 151 213 244 268 267 253 227 200 208 221 238 251 246 234 251 268 269 258 255 259 268 272 267 268 271 275 275 266 267 266 263 258 239 229 227 227 228 228 228 228 228 228 229 229 230 230 232 233 233 234 235 235 236 235 235 235 236 238 241 244 245 247 248 247 247 246
178 149 143 152 180 189 190 197 199 190 173 169 178 175 182 180 130 154 216 200 146 204 199 218 260 266 239 205 210 210 223 239 236 223 251 270 274 272 270 262 261 264 264 268 271 278 286 280 279 278 265 256 240 227 221 222 224 225 226 227 228 229 230 231 233 233 235 235 235 236 236 236 236 236 237 237 238 239 242 244 246 247 246 245 246 246
127 110 134 141 182 194 191 197 148 158 151 150 194 178 171 163 145 181 214 203 173 214 156 160 267 270 214 192 200 201 225 247 236 216 246 270 278 280 277 270 263 258 260 268 270 272 274 271 277 278 268 257 244 230 220 217 220 223 225 226 226 228 231 233 234 235 236 235 236 237 237 238 238 239 239 239 239 240 242 244 245 244 243 243 245 245
59 124 138 116 97 66 72 54 42 83 125 125 221 184 165 182 191 195 203 168 178 214 190 218 262 253 198 193 196 189 218 261 254 221 236 269 281 273 272 276 275 267 267 271 272 272 271 271 275 273 262 252 243 233 226 221 221 223 224 224 225 229 232 234 234 235 235 236 237 238 238 239 239 238 238 238 239 240 241 242 242 241 241 242 244 245
195 166 154 140 142 95 97 114 54 58 174 187 203 193 185 194 192 174 122 135 221 218 191 214 250 241 210 313 250 192 187 240 256 231 216 247 269 271 273 277 276 277 282 282 280 278 271 267 266 259 251 245 239 234 229 227 225 225 225 225 227 231 233 235 235 235 236 237 237 237 237 238 237 237 237 238 239 240 240 240 240 240 241 242 243 243
168 166 169 164 164 167 175 182 184 188 188 194 196 190 196 196 186 185 196 193 224 217 186 210 241 259 8 326 274 210 180 219 247 241 220 230 250 265 274 280 282 283 282 280 282 280 272 267 261 257 252 244 237 233 230 231 231 230 231 230 231 235 235 235 236 236 236 236 236 237 237 237 237 236 237 238 239 240 240 240 240 241 241 241 240 240
108 183 189 192 193 183 185 198 169 155 161 184 191 191 200 201 194 197 203 210 222 218 205 223 227 198 13 256 239 213 199 222 243 251 254 244 247 257 259 266 277 276 271 272 274 280 282 275 267 266 260 248 238 232 230 232 233 234 238 239 238 240 240 238 237 236 236 236 237 238 238 238 237 237 238 239 240 240 240 240 241 241 240 239 238 237
125 201 193 205 216 204 57 54 134 144 172 190 190 191 196 196 196 201 211 224 223 214 240 239 214 164 229 232 228 216 198 226 249 244 247 243 240 248 256 277 287 283 284 281 269 268 271 275 279 276 264 252 242 238 235 235 238 240 245 249 249 247 247 245 243 240 240 239 238 240 240 239 239 239 240 240 240 240 240 239 239 239 238 236 234 233
177 209 194 204 216 213 9 71 154 163 189 196 189 191 193 189 194 201 215 226 215 201 239 237 188 195 228 224 233 227 193 204 229 225 223 222 238 252 272 296 295 293 299 299 287 273 260 267 276 270 266 263 255 249 244 242 244 245 250 255 255 253 251 248 245 243 241 241 241 242 241 240 240 239 239 238 238 237 237 237 236 235 234 232 230 230
179 205 194 200 214 217 239 237 167 172 187 194 190 191 188 190 200 206 218 226 216 221 242 235 187 217 226 200 216 228 195 200 232 260 221 211 244 254 262 275 273 270 275 280 285 282 268 260 256 254 266 267 259 254 250 248 249 249 255 260 261 261 258 252 247 243 240 241 243 242 241 241 239 237 236 235 234 234 234 234 233 232 230 227 224 223
184 206 186 175 208 222 225 236 197 179 184 190 189 185 180 190 207 217 227 230 218 231 244 238 224 240 229 184 210 232 209 229 273 271 243 243 253 252 262 269 262 251 248 250 262 268 269 266 257 250 247 245 248 250 251 253 254 258 268 273 273 272 267 258 252 246 243 245 245 242 240 239 237 235 235 234 233 233 232 231 229 226 223 219 217 215
185 198 160 152 200 222 216 219 210 182 191 195 184 172 173 188 205 214 223 223 209 222 237 234 236 246 224 151 203 225 215 230 239 228 213 222 230 221 233 250 252 250 249 249 252 253 257 259 252 243 243 250 257 260 261 261 262 272 281 286 289 285 273 261 255 249 247 247 244 240 237 237 236 234 234 233 233 232 230 227 223 219 216 214 212 212
192 191 164 166 201 225 215 206 185 163 196 207 190 182 183 195 206 211 220 223 214 218 228 226 235 243 176 153 203 216 203 216 233 230 201 209 225 219 223 233 242 247 241 241 251 256 257 254 243 240 248 260 268 269 271 272 272 278 283 286 289 285 274 265 259 251 247 244 240 237 235 234 234 233 233 232 231 229 225 221 219 216 215 214 213 215
199 201 187 171 205 227 196 158 147 180 207 214 202 192 192 198 205 211 222 226 219 223 238 244 238 171 147 184 208 211 202 214 233 234 185 195 224 234 237 233 235 245 245 244 246 246 250 252 250 252 256 262 269 273 276 276 273 276 279 280 283 280 272 266 261 253 247 241 237 235 232 231 231 231 231 229 227 224 220 218 218 217 217 216 216 219
184 198 197 180 208 213 135 132 174 213 219 224 212 198 201 207 208 219 235 236 222 221 234 241 234 180 154 207 209 201 208 221 242 253 217 206 215 223 233 233 230 240 254 263 261 256 254 248 246 253 258 264 270 272 271 269 271 273 274 276 277 274 268 263 259 254 247 240 236 234 229 228 228 227 227 225 222 220 218 218 219 219 219 218 219 222
165 188 197 191 197 161 135 172 202 233 236 217 177 167 187 208 206 218 239 238 225 217 224 235 235 213 183 215 199 186 198 220 265 269 248 235 223 215 225 225 210 214 231 245 253 257 257 256 257 262 268 272 274 272 269 272 274 271 270 272 272 267 263 259 255 252 246 240 236 233 229 227 225 224 224 221 219 219 219 219 220 219 219 220 221 224
146 173 189 209 205 179 173 191 209 286 293 168 157 169 183 200 201 202 229 241 228 216 229 244 243 228 215 202 170 132 132 144 276 261 249 244 229 212 223 214 185 201 222 228 232 241 251 257 263 268 273 278 279 279 280 283 281 272 268 269 265 260 255 250 251 252 247 241 239 235 230 227 224 222 221 218 218 220 220 220 220 220 220 220 221 223
151 172 168 195 223 195 180 195 202 238 239 219 206 198 192 198 192 166 233 257 227 191 214 232 235 230 217 181 146 136 124 138 243 248 248 243 200 182 212 209 194 209 224 229 234 243 251 256 262 266 272 278 280 280 282 282 279 272 268 266 260 253 245 243 250 253 249 246 245 238 232 229 225 223 221 219 220 222 221 221 221 221 221 221 221 222
133 147 146 181 235 201 197 215 203 214 237 236 215 188 169 156 123 107 199 253 232 196 204 219 229 229 209 164 160 154 134 195 240 246 243 183 155 180 199 206 211 220 230 235 236 242 250 256 263 271 276 276 275 278 280 279 276 267 260 260 256 247 240 244 254 258 256 256 252 242 235 232 229 226 224 223 224 223 222 222 223 223 224 223 223 223
148 157 173 209 226 209 208 235 233 226 252 252 177 150 145 133 117 124 210 251 244 204 193 210 225 224 192 159 165 171 179 216 238 241 158 153 187 195 195 206 214 218 232 240 242 246 255 263 271 276 277 273 273 277 279 276 268 254 249 254 251 241 241 251 260 264 263 262 256 245 239 237 233 231 229 228 228 226 224 226 225 224 224 223 222 222
156 167 189 211 223 220 213 227 257 254 259 256 179 156 141 129 130 175 214 252 261 178 179 204 217 205 168 165 181 195 207 224 234 209 139 170 203 207 210 223 209 210 232 243 249 256 261 263 267 268 270 272 275 278 277 269 255 243 243 245 238 238 249 260 265 265 263 262 256 249 245 242 238 238 236 234 232 229 228 229 228 226 225 221 219 219
155 153 173 199 217 231 218 217 253 260 263 278 192 161 141 140 177 214 229 310 354 125 195 207 195 172 167 177 193 208 218 228 233 218 135 139 216 276 313 354 24 278 262 257 249 251 254 259 263 264 268 274 277 277 274 263 249 244 242 238 237 246 258 264 264 262 260 260 259 253 249 246 243 241 239 236 233 230 229 229 228 227 225 220 217 217
163 158 178 189 180 216 213 207 223 245 307 357 25 157 137 149 239 277 311 340 356 360 338 290 168 175 182 187 203 215 223 234 239 206 70 38 356 336 316 319 331 312 303 292 268 261 270 275 273 275 281 287 286 279 269 252 245 243 237 237 247 256 261 261 261 260 259 259 258 255 252 248 245 241 238 235 232 229 227 226 224 222 221 218 216 214
168 165 186 195 181 183 198 205 216 244 299 335 21 88 90 283 287 303 323 0 14 11 6 10 357 273 219 204 218 227 241 284 336 52 63 42 326 308 303 314 323 318 309 301 296 300 303 295 291 294 299 302 298 285 265 246 245 244 238 246 259 264 261 261 263 262 260 258 256 254 251 248 243 239 236 234 231 227 224 222 220 217 214 214 213 212
193 162 156 171 183 169 164 184 216 228 279 318 18 39 6 347 334 328 11 46 30 9 8 14 2 349 350 3 15 17 359 344 355 40 56 25 282 292 306 315 313 309 306 303 306 311 310 303 300 301 304 310 316 310 275 246 243 244 247 260 273 273 267 267 265 261 260 259 256 254 250 245 242 239 236 232 228 223 220 218 215 212 210 209 208 210
311 182 120 121 181 136 104 82 51 47 15 3 28 34 23 22 13 7 33 42 25 8 12 19 13 6 8 18 31 29 10 354 360 8 1 336 310 307 310 306 303 305 299 295 304 316 318 314 309 305 309 315 323 336 328 267 242 245 257 272 283 280 275 272 267 262 261 258 255 252 247 241 239 237 234 230 226 223 220 217 213 211 210 207 207 210
277 231 104 75 164 147 102 41 32 52 45 27 36 40 31 25 18 22 38 38 24 20 19 13 11 15 20 27 31 24 10 1 2 1 357 349 331 319 316 314 311 311 310 309 317 326 328 326 323 319 313 312 318 330 334 316 283 273 279 285 285 281 276 271 266 263 261 258 254 249 242 237 235 232 229 226 224 221 220 218 215 213 210 207 207 209
261 206 127 102 68 118 113 33 17 78 61 36 32 33 27 20 14 20 38 45 37 33 27 19 17 18 18 20 23 20 13 9 5 355 348 350 348 334 325 320 316 317 322 327 330 334 336 331 323 317 309 308 316 325 327 323 320 312 304 300 294 287 279 272 266 263 262 260 255 248 241 237 234 229 225 223 221 218 217 216 214 214 214 213 210 209
301 352 147 124 86 101 93 17 8 69 53 33 27 21 13 12 16 20 25 27 25 23 21 19 25 33 25 14 10 15 11 4 2 356 344 340 340 333 325 319 314 313 318 324 329 331 330 322 316 313 307 306 315 326 328 328 330 328 322 316 308 295 284 277 271 266 264 262 256 249 244 239 235 230 225 222 221 221 221 220 218 217 220 221 219 218
22 43 184 76 78 103 81 16 22 65 56 34 30 14 354 359 22 24 19 15 11 9 9 8 11 31 34 17 8 16 8 350 348 354 345 332 326 321 317 316 317 318 322 326 328 326 323 320 317 311 306 309 319 327 328 328 330 332 331 327 317 300 289 284 279 271 267 264 258 252 248 242 238 235 230 225 223 223 225 227 227 226 227 227 228 228
104 96 108 81 76 102 124 108 84 78 64 47 30 342 309 355 37 30 17 9 2 354 357 1 360 6 13 8 6 12 356 334 336 343 335 322 316 314 315 316 315 316 320 326 327 323 321 322 321 315 312 317 324 327 327 329 333 335 334 332 325 311 296 286 279 274 271 268 263 258 253 247 244 240 234 230 228 226 226 229 231 232 233 234 235 235